Zurück zum Katalog

MOLNIYA 1-52

AktivKommunikationHEO
NORAD 13012·PAYLOAD·🇷🇺 Russia

Gestartet Dec 23, 1981 von Baikonur Cosmodrome

Loading…

Nächste Überflüge (nächste 24 Stunden)

TLE

AktuellSource: Space-Track

Epoche: Sep 14, 2026, 12:15 UTC

1 13012U 81123A   26257.51090197  .00001174  00000-0  50371-3 0  9998
2 13012  61.7536  52.2009 7474417 278.5662  11.0240  2.00428112327689

Verfolge MOLNIYA 1-52 in Echtzeit mit AllMySat

Download on the App Store